Fairbanks, AK

7:48 PM AKDT on August 20, 2019 (GMT -0800)
Fairbanks International

Weather History for PAFA - December, 1974

Change the Weather History Date:

Thursday, December 19, 1974

  Actual Average Record
Temperature  
Mean Temperature -6 °F -4 °F  
Max Temperature 3 °F 5 °F 40 °F (1985)
Min Temperature -14 °F -13 °F -52 °F (1933)
Degree Days  
Heating Degree Days 70 69  
Month to date heating degree days 1295  
Since 1 July heating degree days 5426  
Cooling Degree Days 0 0  
Month to date cooling degree days 0  
Year to date cooling degree days 61  
Moisture  
Dew Point -11 °F    
Average Humidity 61    
Maximum Humidity 69    
Minimum Humidity 57    
Precipitation  
Precipitation 0.04 in 0.02 in 0.56 in (1968)
Month to date precipitation 0.37  
Year to date precipitation 10.54  
Snow  
Snow 0.00 in 0.30 in 7.20 in (1968)
Month to date snowfall 7.2  
Since 1 July snowfall 33.0  
Snow Depth -    
Sea Level Pressure  
Sea Level Pressure 29.46 in    
Wind  
Wind Speed 3 mph (North)    
Max Wind Speed 8 mph    
Max Gust Speed -    
Visibility 7 miles    
Events Snow    
T = Trace of Precipitation, MM = Missing Value Source: NWS Daily Summary

Daily Weather History Graph

Daily Weather History Graph

Search for Another Location

Airport or City:

Astronomy

Dec. 19, 1974 Rise Set
Actual Time 9:56 AM AHST 1:40 PM AHST
Civil Twilight 8:31 AM AHST 3:05 PM AHST
Nautical Twilight 7:19 AM AHST 4:17 PM AHST
Astronomical Twilight 6:18 AM AHST 5:18 PM AHST
Moon 11:01 AM AHST (12/19) 10:22 PM AHST (12/19)
Length of Visible Light 6h 33m
Length of Day
3h 43m
Waxing Crescent, 32% of the Moon is Illuminated
Dec 19
Waxing Crescent
Dec 21
First Quarter
Dec 28
Full
Jan 4
Last Quarter
Jan 12
New

Hourly Weather History & Observations

Time (AHST) Temp. Windchill Dew Point Humidity Pressure Visibility Wind Dir Wind Speed Gust Speed Precip Events Conditions
12:00 AM -14.1 °F - -25.1 °F 58% 29.36 in 10.0 mi Calm Calm - N/A   Overcast
1:00 AM -11.0 °F -20.4 °F -22.0 °F 58% 29.38 in 7.0 mi SSW 3.5 mph - N/A Snow Light Snow
2:00 AM -9.9 °F -19.2 °F -20.0 °F 61% 29.40 in 6.0 mi South 3.5 mph - N/A Snow Light Snow
3:00 AM -8.0 °F - -18.0 °F 61% 29.40 in 3.0 mi Calm Calm - N/A Snow Light Snow
4:00 AM -5.1 °F - -15.0 °F 62% 29.40 in 3.0 mi Calm Calm - N/A Snow Light Snow
4:20 AM - - - N/A% 29.34 in 2.0 mi NNE 4.6 mph - N/A   Unknown
5:00 AM 3.0 °F -9.3 °F -5.1 °F 69% 29.40 in 5.0 mi North 6.9 mph - 0.01 in Snow Light Snow
6:00 AM 3.0 °F -9.3 °F -6.0 °F 66% 29.41 in 10.5 mi NNW 6.9 mph - N/A Snow Light Snow
7:00 AM 3.0 °F -9.3 °F -5.1 °F 69% 29.43 in 10.5 mi North 6.9 mph - N/A Snow Light Snow
7:11 AM - - - N/A% 29.38 in 3.0 mi North 5.8 mph - N/A   Unknown
8:00 AM 3.0 °F -8.0 °F -6.0 °F 66% 29.44 in 3.0 mi North 5.8 mph - 0.01 in Snow Light Snow
9:00 AM 3.0 °F -8.0 °F -9.0 °F 57% 29.45 in 30.0 mi North 5.8 mph - N/A   Scattered Clouds
10:00 AM 1.0 °F -11.7 °F -11.0 °F 57% 29.45 in 60.0 mi North 6.9 mph - N/A   Scattered Clouds
11:00 AM 1.0 °F -8.7 °F -11.0 °F 57% 29.46 in 60.0 mi North 4.6 mph - N/A   Mostly Cloudy
12:00 PM -2.0 °F -12.2 °F -11.9 °F 63% 29.47 in 60.0 mi North 4.6 mph - N/A   Mostly Cloudy
1:00 PM -0.9 °F -15.3 °F -11.0 °F 62% 29.49 in 60.0 mi North 8.1 mph - N/A   Overcast
2:00 PM -0.0 °F -11.6 °F -9.9 °F 63% 29.49 in 60.0 mi North 5.8 mph - N/A Snow Light Snow
3:00 PM 1.9 °F -10.6 °F -9.9 °F 58% 29.49 in 15.0 mi North 6.9 mph - N/A Snow Light Snow
4:00 PM 1.9 °F -7.6 °F -9.9 °F 58% 29.50 in 15.0 mi NNW 4.6 mph - N/A Snow Light Snow
5:00 PM 1.9 °F -10.6 °F -9.0 °F 60% 29.51 in 15.0 mi North 6.9 mph - N/A Snow Light Snow
6:00 PM 1.9 °F -7.6 °F -9.0 °F 60% 29.52 in 10.0 mi NNW 4.6 mph - N/A Snow Light Snow
6:34 PM - - - N/A% 29.47 in 4.0 mi North 3.5 mph - N/A   Unknown
7:00 PM 1.9 °F - -8.0 °F 63% 29.52 in 4.0 mi Calm Calm - N/A Snow Light Snow
8:00 PM 1.0 °F - -8.0 °F 66% 29.54 in 3.0 mi Calm Calm - 0.01 in Snow Light Snow
9:00 PM 1.0 °F - -11.0 °F 57% 29.55 in 3.0 mi Calm Calm - N/A Snow Light Snow
9:28 PM - - - N/A% 29.51 in 6.0 mi Calm Calm - N/A   Unknown
10:00 PM 1.0 °F - -9.9 °F 60% 29.56 in 5.0 mi Calm Calm - 0.01 in Snow Light Snow
11:00 PM -0.0 °F - -9.9 °F 63% 29.57 in 6.0 mi Calm Calm - N/A Snow Light Snow